This demonstration page uses our WeatherBlox Daily Observations layout. Learn more.

Left ArrowRight Arrow

40.92945, -100.16068

Hourly Observations for November 4, 2020

Temp ( °F °C ) Dew Point ( °F °C ) Humidity (%) Winds ( mph kmh ) Pressure ( in mb ) Visibility ( mi km ) Precip ( " mm )
12:15 am 00:15 Clear 39 4 26 -3.3 59 59 W 5 7 30.03 1017 10 16.0934 0 0
12:35 am 00:35 Clear 38 3.3 25 -3.7 60 60 WNW 7 11 30.04 1017 10 16.0934 0 0
12:55 am 00:55 Clear 38 3.6 26 -3.2 61 61 WNW 6 9 30.04 1017 10 16.0934 0 0
1:15 am 01:15 Clear 38 3.3 26 -3.1 63 63 WNW 5 7 30.04 1017 10 16.0934 0 0
1:35 am 01:35 Clear 37 2.8 26 -3.4 64 64 WNW 5 7 30.04 1017 10 16.0934 0 0
1:55 am 01:55 Clear 38 3.6 27 -2.8 63 63 W 5 7 30.03 1017 10 16.0934 0 0
2:15 am 02:15 Clear 40 4.2 27 -2.8 61 61 WNW 6 9 30.03 1017 10 16.0934 0 0
2:35 am 02:35 Clear 40 4.5 26 -3.1 58 58 W 6 9 30.02 1017 10 16.0934 0 0
2:55 am 02:55 Clear 39 4 27 -2.7 62 62 NW 6 9 30.03 1017 10 16.0934 0 0
3:15 am 03:15 Clear 40 4.5 28 -2.5 61 61 WNW 7 11 30.02 1017 10 16.0934 0 0
3:35 am 03:35 Clear 41 4.9 28 -2.2 60 60 WSW 3 6 30.02 1017 10 16.0934 0 0
3:55 am 03:55 Clear 41 4.8 28 -2.1 61 61 WNW 6 9 30.01 1016 10 16.0934 0 0
4:15 am 04:15 Clear 39 4.1 28 -2.5 63 63 WNW 5 7 30.02 1016 10 16.0934 0 0
4:35 am 04:35 Clear 39 4 28 -2.5 63 63 WNW 6 9 30.03 1017 10 16.0934 0 0
4:55 am 04:55 Clear 40 4.3 28 -2.4 62 62 W 5 7 30.02 1017 10 16.0934 0 0
5:15 am 05:15 Clear 40 4.5 28 -2.2 62 62 W 5 7 30.02 1017 10 16.0934 0 0
5:35 am 05:35 Clear 40 4.5 28 -2.4 61 61 W 6 9 30.03 1017 10 16.0934 0 0
5:55 am 05:55 Clear 38 3.6 28 -2 67 67 W 7 11 30.04 1017 10 16.0934 0 0
6:15 am 06:15 Clear 39 3.7 28 -2.2 66 66 W 7 11 30.04 1017 10 16.0934 0 0
6:35 am 06:35 Clear 38 3.4 28 -2 68 68 W 5 7 30.04 1017 10 16.0934 0 0
6:55 am 06:55 Clear 38 3.5 29 -1.9 68 68 W 8 13 30.04 1017 10 16.0934 0 0
7:15 am 07:15 Sunny 38 3.6 28 -2.2 66 66 W 6 9 30.05 1018 10 16.0934 0 0
7:35 am 07:35 Sunny 37 2.6 28 -2.5 69 69 WNW 8 13 30.06 1018 7 11.26538 0 0
7:55 am 07:55 Sunny 39 3.8 29 -1.7 68 68 W 7 11 30.06 1018 10 16.0934 0 0
8:15 am 08:15 Sunny 44 6.4 31 -0.6 61 61 WNW 6 9 30.02 1017 10 16.0934 0 0
8:35 am 08:35 Sunny 49 9.4 32 0 52 52 W 7 11 30.01 1016 10 16.0934 0 0
8:55 am 08:55 Sunny 51 10.6 32 0 48 48 WNW 8 13 30.01 1016 10 16.0934 0 0
9:15 am 09:15 Sunny 55 12.7 33 0.4 43 43 W 7 11 29.99 1015 10 16.0934 0 0
9:35 am 09:35 Sunny 59 14.9 34 0.9 39 39 W 8 13 29.97 1015 10 16.0934 0 0
9:55 am 09:55 Sunny 60 15.8 33 0.7 36 36 W 8 13 29.96 1015 10 16.0934 0 0
10:15 am 10:15 Sunny 60 15.4 33 0.6 37 37 WNW 7 11 29.96 1015 10 16.0934 0 0
10:35 am 10:35 Sunny 60 15.4 34 0.9 38 38 W 6 9 29.97 1015 10 16.0934 0 0
10:55 am 10:55 Sunny 63 17.1 33 0.7 33 33 W 8 13 29.96 1014 10 16.0934 0 0
11:15 am 11:15 Sunny 65 18.5 34 1 31 31 W 6 9 29.95 1014 10 16.0934 0 0
11:35 am 11:35 Sunny 69 20.8 34 1.3 27 27 WNW 3 6 29.92 1013 10 16.0934 0 0
11:55 am 11:55 Sunny 75 23.8 33 0.4 21 21 WNW 12 19 29.88 1012 10 16.0934 0 0
12:15 pm 12:15 Sunny 74 23.3 32 0.1 22 22 WNW 12 19 29.87 1012 10 16.0934 0 0
12:35 pm 12:35 Sunny 73 23 33 0.3 22 22 NW 9 15 29.88 1012 10 16.0934 0 0
12:55 pm 12:55 Sunny 76 24.7 33 0.7 21 21 WNW 8 13 29.85 1011 10 16.0934 0 0
1:15 pm 13:15 Sunny 75 24 33 0.6 21 21 W 7 11 29.86 1011 10 16.0934 0 0
1:35 pm 13:35 Sunny 74 23.6 32 0.1 21 21 W 5 7 29.85 1011 10 16.0934 0 0
1:55 pm 13:55 Sunny 79 26.2 31 -0.7 17 17 WNW 8 13 29.83 1010 10 16.0934 0 0
2:15 pm 14:15 Sunny 80 26.6 29 -1.6 16 16 WNW 9 15 29.83 1010 10 16.0934 0 0
2:35 pm 14:35 Sunny 81 27 28 -2.2 15 15 WNW 8 13 29.82 1010 10 16.0934 0 0
2:55 pm 14:55 Sunny 81 27.2 27 -3 14 14 WNW 8 13 29.82 1010 10 16.0934 0 0
3:15 pm 15:15 Sunny 81 27.2 26 -3.6 13 13 NW 8 13 29.82 1010 10 16.0934 0 0
3:35 pm 15:35 Sunny 81 27.1 26 -3.2 13 13 NW 10 17 29.82 1010 10 16.0934 0 0
3:55 pm 15:55 Sunny 80 26.7 28 -2.3 15 15 NNW 10 17 29.84 1010 10 16.0934 0 0
4:15 pm 16:15 Sunny 80 26.4 30 -1.2 16 16 NW 7 11 29.85 1011 10 16.0934 0 0
4:35 pm 16:35 Sunny 78 25.5 32 -0.2 18 18 Calm 29.85 1011 10 16.0934 0 0
4:55 pm 16:55 Sunny 75 24 32 0 21 21 Calm 29.87 1011 10 16.0934 0 0
5:15 pm 17:15 Sunny 74 23.2 32 0.2 22 22 Calm 29.87 1012 10 16.0934 0 0
5:35 pm 17:35 Clear 68 20.1 32 -0.1 26 26 Calm 29.91 1013 7 11.26538 0 0
5:55 pm 17:55 Clear 63 17 32 -0.1 32 32 Calm 29.94 1014 7 11.26538 0 0
6:15 pm 18:15 Hazy 62 16.8 32 0.2 33 33 Calm 29.95 1014 5 8.0467 0 0
6:35 pm 18:35 Hazy 58 14.2 32 -0.2 37 37 Calm 29.99 1016 5 8.0467 0 0
6:55 pm 18:55 Hazy 58 14.4 32 0 38 38 S 5 7 29.99 1016 5 8.0467 0 0
7:15 pm 19:15 Clear 56 13.4 30 -0.9 38 38 N 5 7 30.01 1016 7 11.26538 0 0
7:35 pm 19:35 Clear 51 10.6 30 -1 45 45 Calm 30.04 1017 7 11.26538 0 0
7:55 pm 19:55 Clear 49 9.5 29 -1.8 46 46 Calm 30.05 1017 10 16.0934 0 0
8:15 pm 20:15 Clear 48 8.9 29 -1.8 47 47 Calm 30.05 1018 7 11.26538 0 0
8:35 pm 20:35 Clear 45 7 29 -1.9 53 53 NNW 8 13 30.09 1019 7 11.26538 0 0
8:55 pm 20:55 Clear 45 7.3 29 -1.8 53 53 NNW 8 13 30.1 1019 10 16.0934 0 0
9:15 pm 21:15 Clear 45 7.1 29 -1.8 54 54 NW 7 11 30.12 1020 7 11.26538 0 0
9:35 pm 21:35 Clear 44 6.9 29 -1.6 55 55 Calm 30.12 1020 10 16.0934 0 0
9:55 pm 21:55 Clear 44 6.6 29 -1.4 57 57 Calm 30.14 1021 10 16.0934 0 0
10:15 pm 22:15 Clear 47 8.1 30 -1.2 52 52 NW 7 11 30.13 1020 10 16.0934 0 0
10:35 pm 22:35 Clear 46 7.7 31 -0.5 56 56 NNW 10 17 30.14 1021 10 16.0934 0 0
10:55 pm 22:55 Clear 49 9.2 31 -0.6 51 51 N 7 11 30.13 1020 10 16.0934 0 0
11:15 pm 23:15 Clear 45 7.2 30 -0.9 57 57 NW 6 9 30.16 1021 10 16.0934 0 0
11:35 pm 23:35 Clear 47 8.3 31 -0.4 55 55 WNW 10 17 30.16 1021 10 16.0934 0 0
11:55 pm 23:55 Clear 44 6.7 31 -0.7 60 60 WNW 12 19 30.17 1022 10 16.0934 0 0

Powered by AerisWeather